ECHOSTAR 10

Last updated on Tue Sep 22 2026 00:03:11 GMT+0000 (Coordinated Universal Time)

1 28935U 06003A 26264.48854742 -.00000059 00000+0 00000+0 0 9991 2 28935 0.0386 342.6010 0002539 148.1938 295.2782 1.00271327 75421
UTC large
Height (km)
Speed (km/s)
/
Latitude / Longitude
Inclination (degrees)
Orbital Period (minutes)
Azimuth
Elevation
Range (km)
Doppler Factor

Next 0 passes for location: London (51.5072 / 0.1276)

No passes found over London.
ECHOSTAR 10